星链-31541 (STARLINK-31541 )

导读 | 豆包AI

STARLINK-31541是美国星链计划的卫星,于2024年5月3日发射升空,属于SpaceX公司部署的低轨互联网卫星星座组成部分。星链旨在构建全球卫星互联网通信系统,这类卫星会为偏远地区提供网络覆盖,也支撑航天技术与商业航天发展,同时也引发了天文观测等领域争议。

基本信息
目录编号:
59633
目录名称:
STARLINK-31541
国际标识:
2024-082C
轨道中心:
EARTH
卫星名称:
星链-31541
卫星全名:
星链-31541 (STARLINK-31541 )
卫星状态:
在轨 (已飞行727 天)
发射日期:
2024-05-03 UTC
国别 :
美国 (US)
星等 :
--
轨道信息
数据来源 国际轨道数据
星历时间: 2026-04-30T14:38:18+0800
17小时前
查看轨道信息
半长轴: 6861.176km
偏心率: 0.0001073
轨道倾角: 43.002°
近地点辐角 258.225°
升交点赤经 201.356°
平近点角 101.848°
近地点: 482.302km
远地点: 483.776km
周期: 94.267分钟
每日圈数: 15.275835
详细信息
固有亮度:
5
最大亮度:
1.5
卫星平台:
Starlink v2.0 mini
覆盖范围:
全球
运营商:
太空探索技术公司
运营商所在国:
美国
制造商(研发单位):
太空探索技术公司
制造商所在国:
美国
使用方式:
暂无
卫星简介
星链(Starlink)计划是由太空探索技术公司(SpaceX)提出的一个巨型低轨卫星互联网星座项目,计划在2019年至2024年间在太空搭建由约1.2万颗卫星组成的“星链”网络,其中1584颗将部署在地球上空550千米处的近地轨道,并从2020年开始工作。该卫星仍在工作。
2D轨道图
3D轨道图
轨道高度分析图
轨道倾角分析图
轨道综合分析图
查看轨道综合分析图